FW1957 Weather Reports


time (UTC)temp
C
wind
direction
speed
KPH
gust
KPH
rain 1hr
cm
rain 24hr
cm
rain mn
cm
humidity
%
barometer
mb
20260506014219 13 32 0.0 4.8 0.00 0.00 0.00 70 1005.9
20260506013715 13 32 0.0 4.8 0.00 0.00 0.00 70 1005.9
20260506013207 13 32 1.6 4.8 0.00 0.00 0.00 70 1005.9
20260506012215 13 55 3.2 4.8 0.00 0.00 0.00 69 1005.7
20260506011704 13 13 3.2 8.0 0.00 0.00 0.00 69 1005.8
20260506011215 14 355 3.2 9.7 0.00 0.00 0.00 69 1005.8
20260506010718 14 9 4.8 9.7 0.00 0.00 0.00 68 1005.8
20260506010213 14 346 4.8 9.7 0.00 0.00 0.00 68 1005.8
20260506005715 14 338 3.2 8.0 0.00 0.00 0.00 68 1005.7
20260506005211 14 343 3.2 8.0 0.00 0.00 0.00 67 1005.6
20260506004706 14 20 3.2 8.0 0.00 0.00 0.00 66 1005.4
20260506004213 15 19 1.6 6.4 0.00 0.00 0.00 66 1005.4
20260506003712 15 275 3.2 6.4 0.00 0.00 0.00 65 1005.3
20260506003218 15 311 4.8 8.0 0.00 0.00 0.00 65 1005.2
20260506002717 15 311 4.8 8.0 0.00 0.00 0.00 65 1005.1
20260506001712 15 234 4.8 6.4 0.00 0.00 0.00 65 1005.1
20260506001219 15 225 4.8 6.4 0.00 0.00 0.00 65 1005.0
20260506000717 15 234 4.8 9.7 0.00 0.00 0.00 64 1005.0
20260505235716 15 228 4.8 9.7 0.00 0.00 0.00 64 1004.9
20260505235216 15 227 6.4 9.7 0.00 0.00 0.00 64 1004.8
20260505234712 15 232 4.8 9.7 0.00 0.00 0.00 64 1004.8
20260505234218 15 188 4.8 9.7 0.00 0.00 0.00 65 1004.8
20260505233743 15 205 4.8 8.0 0.00 0.00 0.00 65 1004.7
20260505233212 15 194 3.2 8.0 0.00 0.00 0.00 65 1004.7
20260505232718 15 167 3.2 8.0 0.00 0.00 0.00 65 1004.7
20260505232216 15 190 3.2 8.0 0.00 0.00 0.00 65 1004.7
20260505231710 15 179 3.2 6.4 0.00 0.00 0.00 65 1004.7
20260505231211 15 170 3.2 11.3 0.00 0.00 0.00 64 1004.6
20260505230715 15 202 4.8 11.3 0.00 0.00 0.00 64 1004.6
20260505230210 15 196 6.4 11.3 0.00 0.00 0.00 64 1004.5
20260505225218 15 185 4.8 11.3 0.00 0.00 0.00 63 1004.5
20260505224712 15 202 4.8 11.3 0.00 0.00 0.00 63 1004.5
20260505224210 15 207 6.4 11.3 0.00 0.00 0.00 63 1004.4
20260505223705 15 178 6.4 9.7 0.00 0.00 0.00 63 1004.4
20260505223205 15 173 6.4 14.5 0.00 0.00 0.00 63 1004.4
20260505222710 15 179 6.4 14.5 0.00 0.00 0.00 62 1004.3
20260505221719 16 178 6.4 14.5 0.00 0.00 0.00 62 1004.1
20260505221209 16 198 6.4 14.5 0.00 0.00 0.00 61 1004.1
20260505220714 16 211 6.4 14.5 0.00 0.00 0.00 61 1004.0
20260505220211 16 169 4.8 14.5 0.00 0.00 0.00 60 1004.1
20260505215714 16 192 6.4 17.7 0.00 0.00 0.00 60 1004.1
20260505215207 16 180 8.0 19.3 0.00 0.00 0.00 60 1004.0
20260505214720 16 216 9.7 19.3 0.00 0.00 0.00 60 1004.0
20260505214214 16 201 9.7 19.3 0.00 0.00 0.00 60 1004.0
20260505213713 16 198 8.0 16.1 0.00 0.00 0.00 60 1003.9
20260505213206 16 213 9.7 19.3 0.00 0.00 0.00 59 1003.8
20260505212719 16 222 9.7 20.9 0.00 0.00 0.00 59 1003.8
20260505212223 16 221 11.3 20.9 0.00 0.00 0.00 59 1003.8
20260505211705 17 215 11.3 22.5 0.00 0.00 0.00 58 1003.7
20260505210711 17 223 12.9 25.7 0.00 0.00 0.00 58 1003.6
20260505205718 17 211 14.5 27.4 0.00 0.00 0.00 58 1003.4
20260505205213 17 235 14.5 29.0 0.00 0.00 0.00 58 1003.2
20260505204713 17 220 14.5 30.6 0.00 0.00 0.00 57 1003.2
20260505203208 17 184 16.1 33.8 0.00 0.00 0.00 57 1003.0
20260505202709 17 169 16.1 33.8 0.00 0.00 0.00 57 1003.0
20260505202206 17 197 17.7 37.0 0.00 0.00 0.00 57 1002.9
20260505201709 17 178 17.7 37.0 0.00 0.00 0.00 57 1002.9
20260505201219 17 189 17.7 33.8 0.00 0.00 0.00 57 1002.9
20260505200705 17 217 16.1 32.2 0.00 0.00 0.00 56 1002.9
20260505200217 17 205 16.1 37.0 0.00 0.00 0.00 56 1002.9
20260505195705 18 207 17.7 37.0 0.00 0.00 0.00 56 1002.9
20260505195217 18 195 17.7 37.0 0.00 0.00 0.00 56 1002.9
20260505194713 18 209 16.1 35.4 0.00 0.00 0.00 55 1003.0
20260505194216 18 157 16.1 35.4 0.00 0.00 0.00 55 1002.9
20260505193719 18 223 17.7 35.4 0.00 0.00 0.00 55 1002.8
20260505192717 18 183 16.1 25.7 0.00 0.00 0.00 54 1002.7
20260505192208 18 154 16.1 33.8 0.00 0.00 0.00 54 1002.7
20260505191705 18 168 16.1 33.8 0.00 0.00 0.00 54 1002.7
20260505191214 18 202 14.5 33.8 0.00 0.00 0.00 54 1002.8
20260505190713 18 216 12.9 25.7 0.00 0.00 0.00 54 1002.8
20260505190214 18 192 14.5 29.0 0.00 0.00 0.00 54 1002.9
20260505185707 18 174 16.1 29.0 0.00 0.00 0.00 54 1002.9
20260505185213 18 208 14.5 25.7 0.00 0.00 0.00 53 1002.8
20260505184716 18 186 14.5 27.4 0.00 0.00 0.00 53 1002.9
20260505184219 18 207 14.5 27.4 0.00 0.00 0.00 53 1002.9
20260505183705 19 186 14.5 27.4 0.00 0.00 0.00 53 1002.9
20260505183216 19 214 14.5 25.7 0.00 0.00 0.00 52 1002.9
20260505182717 19 200 14.5 30.6 0.00 0.00 0.00 52 1002.9
20260505182205 19 219 16.1 30.6 0.00 0.00 0.00 52 1002.9
20260505181719 19 210 16.1 30.6 0.00 0.00 0.00 51 1002.8
20260505181216 19 189 16.1 30.6 0.00 0.00 0.00 51 1002.9
20260505180715 20 144 16.1 33.8 0.00 0.00 0.00 51 1002.9
20260505180211 20 227 16.1 35.4 0.00 0.00 0.00 51 1002.9
20260505175707 20 223 17.7 38.6 0.00 0.00 0.00 50 1002.9
20260505175212 20 184 19.3 38.6 0.00 0.00 0.00 50 1002.8
20260505174717 20 190 19.3 38.6 0.00 0.00 0.00 50 1002.8
20260505174207 20 167 19.3 35.4 0.00 0.00 0.00 49 1002.7
20260505173720 20 187 19.3 35.4 0.00 0.00 0.00 49 1002.8
20260505173212 20 167 19.3 40.2 0.00 0.00 0.00 49 1002.8
20260505172717 20 224 20.9 40.2 0.00 0.00 0.00 49 1002.8
20260505172217 20 165 19.3 37.0 0.00 0.00 0.00 48 1002.9
20260505171704 20 209 16.1 29.0 0.00 0.00 0.00 48 1002.9
20260505171206 21 169 16.1 33.8 0.00 0.00 0.00 47 1002.9
20260505170731 21 163 16.1 41.8 0.00 0.00 0.00 47 1003.0
20260505170218 21 198 19.3 41.8 0.00 0.00 0.00 47 1003.1
20260505165714 21 197 20.9 41.8 0.00 0.00 0.00 46 1003.1
20260505165207 21 196 20.9 41.8 0.00 0.00 0.00 45 1003.1
20260505164719 22 189 20.9 41.8 0.00 0.00 0.00 45 1003.2
20260505164208 22 133 24.1 43.5 0.00 0.00 0.00 45 1003.2
20260505163713 22 200 25.7 43.5 0.00 0.00 0.00 45 1003.3
20260505163209 22 182 22.5 43.5 0.00 0.00 0.00 44 1003.4
20260505162712 22 186 22.5 40.2 0.00 0.00 0.00 44 1003.4
20260505162206 22 174 22.5 40.2 0.00 0.00 0.00 44 1003.5
20260505161718 22 166 20.9 38.6 0.00 0.00 0.00 44 1003.5
20260505161216 22 186 17.7 37.0 0.00 0.00 0.00 44 1003.5
20260505160708 22 166 17.7 41.8 0.00 0.00 0.00 44 1003.6
20260505160217 23 179 22.5 41.8 0.00 0.00 0.00 43 1003.6
20260505153211 23 167 22.5 45.1 0.00 0.00 0.00 42 1003.8
20260505152708 23 219 22.5 40.2 0.00 0.00 0.00 42 1003.8
20260505152217 23 173 19.3 46.7 0.00 0.00 0.00 42 1003.8
20260505151705 23 180 22.5 48.3 0.00 0.00 0.00 42 1003.9
20260505151217 23 178 27.4 48.3 0.00 0.00 0.00 42 1003.9
20260505150716 23 177 27.4 46.7 0.00 0.00 0.00 42 1004.0
20260505140214 26 205 24.1 46.7 0.00 0.00 0.00 34 1004.1
20260505130211 27 190 22.5 48.3 0.00 0.00 0.00 32 1004.4
20260505124219 27 202 22.5 49.9 0.00 0.00 0.00 29 1004.5
20260505123707 27 204 25.7 49.9 0.00 0.00 0.00 29 1004.6
20260505123207 27 156 25.7 48.3 0.00 0.00 0.00 28 1004.6
20260505122712 27 192 25.7 45.1 0.00 0.00 0.00 29 1004.6
20260505122216 27 173 24.1 41.8 0.00 0.00 0.00 28 1004.7
20260505121717 27 178 20.9 41.8 0.00 0.00 0.00 28 1004.6
20260505121249 27 212 19.3 37.0 0.00 0.00 0.00 28 1004.7
20260505120732 27 222 20.9 43.5 0.00 0.00 0.00 28 1004.7
20260505120219 27 234 22.5 43.5 0.00 0.00 0.00 28 1004.7
20260505115710 27 208 19.3 45.1 0.00 0.00 0.00 27 1004.8
20260505115218 27 159 20.9 48.3 0.00 0.00 0.00 27 1004.7
20260505114715 27 177 24.1 48.3 0.00 0.00 0.00 27 1004.7
20260505114210 27 165 25.7 48.3 0.00 0.00 0.00 27 1004.7
20260505113705 27 198 27.4 46.7 0.00 0.00 0.00 28 1004.8
20260505113206 27 257 25.7 41.8 0.00 0.00 0.00 27 1004.8
20260505112718 27 180 19.3 41.8 0.00 0.00 0.00 28 1004.7
20260505112207 27 146 19.3 43.5 0.00 0.00 0.00 29 1004.9
20260505111732 27 166 25.7 43.5 0.00 0.00 0.00 28 1004.9
20260505111212 27 199 25.7 43.5 0.00 0.00 0.00 28 1005.0
20260505110711 27 176 19.3 41.8 0.00 0.00 0.00 28 1005.0
20260505110213 27 180 17.7 35.4 0.00 0.00 0.00 30 1005.1
20260505102213 26 229 11.3 24.1 0.00 0.00 0.00 33 1005.5
20260505101213 26 183 9.7 20.9 0.00 0.00 0.00 39 1005.6
20260505100716 25 194 8.0 19.3 0.00 0.00 0.00 38 1005.7
20260505100211 25 144 8.0 19.3 0.00 0.00 0.00 41 1005.7
20260505095715 25 173 8.0 25.7 0.00 0.00 0.00 42 1005.9
20260505094219 23 59 8.0 17.7 0.00 0.00 0.00 45 1006.1
20260505093715 23 68 9.7 17.7 0.00 0.00 0.00 45 1006.2
20260505093210 23 98 11.3 17.7 0.00 0.00 0.00 46 1006.4
20260505092718 23 93 8.0 17.7 0.00 0.00 0.00 49 1006.5
20260505091721 22 128 9.7 16.1 0.00 0.00 0.00 49 1006.6
20260505091216 22 78 8.0 16.1 0.00 0.00 0.00 50 1006.7
20260505090713 22 82 8.0 16.1 0.00 0.00 0.00 52 1006.8
20260505090215 21 123 8.0 16.1 0.00 0.00 0.00 50 1006.8
20260505085721 21 63 8.0 16.1 0.00 0.00 0.00 50 1006.9
20260505085210 21 103 8.0 19.3 0.00 0.00 0.00 51 1006.9
20260505084710 21 88 8.0 19.3 0.00 0.00 0.00 51 1007.0
20260505084211 21 97 8.0 19.3 0.00 0.00 0.00 52 1007.0
20260505083718 20 78 6.4 14.5 0.00 0.00 0.00 52 1007.0
20260505083208 20 92 6.4 14.5 0.00 0.00 0.00 53 1007.0
20260505082217 20 51 6.4 14.5 0.00 0.00 0.00 53 1007.0
20260505081709 19 67 6.4 14.5 0.00 0.00 0.00 56 1007.1
20260505081205 19 69 6.4 14.5 0.00 0.00 0.00 55 1007.2
20260505080215 18 73 8.0 14.5 0.00 0.00 0.00 55 1007.2
20260505075720 18 86 6.4 14.5 0.00 0.00 0.00 56 1007.1
20260505075206 18 148 6.4 14.5 0.00 0.00 0.00 57 1007.2
20260505074716 18 116 8.0 14.5 0.00 0.00 0.00 58 1007.2
20260505074207 17 97 6.4 12.9 0.00 0.00 0.00 59 1007.3
20260505072709 17 55 4.8 12.9 0.00 0.00 0.00 60 1007.4
20260505072209 17 124 4.8 12.9 0.00 0.00 0.00 61 1007.3
20260505071716 16 93 6.4 12.9 0.00 0.00 0.00 62 1007.3
20260505071209 16 96 6.4 11.3 0.00 0.00 0.00 64 1007.4
20260505070717 16 95 6.4 11.3 0.00 0.00 0.00 65 1007.4
20260505065208 14 125 4.8 8.0 0.00 0.00 0.00 70 1007.5
20260505064217 13 156 3.2 8.0 0.00 0.00 0.00 70 1007.6
20260505063716 13 129 3.2 6.4 0.00 0.00 0.00 70 1007.5
20260505062711 13 141 3.2 4.8 0.00 0.00 0.00 70 1007.4
20260505062219 13 150 1.6 4.8 0.00 0.00 0.00 70 1007.4
20260505061712 13 131 0.0 3.2 0.00 0.00 0.00 71 1007.4
20260505061212 13 131 0.0 3.2 0.00 0.00 0.00 72 1007.4
20260505060707 13 131 1.6 3.2 0.00 0.00 0.00 71 1007.4
20260505055715 12 131 1.6 4.8 0.00 0.00 0.00 71 1007.4
20260505054714 12 130 3.2 6.4 0.00 0.00 0.00 72 1007.4
20260505054215 12 139 3.2 6.4 0.00 0.00 0.00 73 1007.3
20260505053706 12 126 3.2 6.4 0.00 0.00 0.00 74 1007.3
20260505053216 12 132 1.6 4.8 0.00 0.00 0.00 75 1007.4
20260505052717 11 128 1.6 3.2 0.00 0.00 0.00 76 1007.3
20260505052234 11 114 1.6 3.2 0.00 0.00 0.00 77 1007.3
20260505051713 11 277 0.0 0.0 0.00 0.00 0.00 77 1007.3
20260505051209 11 277 0.0 0.0 0.00 0.00 0.00 78 1007.3
20260505050718 11 277 0.0 0.0 0.00 0.00 0.00 77 1007.3
20260505050218 11 277 0.0 0.0 0.00 0.00 0.00 77 1007.2
20260505041218 10 322 0.0 0.0 0.00 0.00 0.00 76 1007.2
20260505040712 10 322 0.0 0.0 0.00 0.00 0.00 76 1007.3
20260505035707 10 322 0.0 0.0 0.00 0.00 0.00 76 1007.2
20260505035219 10 285 0.0 0.0 0.00 0.00 0.00 75 1007.3
20260505034216 10 285 0.0 1.6 0.00 0.00 0.00 75 1007.2
20260505033711 10 285 0.0 4.8 0.00 0.00 0.00 75 1007.2
20260505033214 10 286 1.6 4.8 0.00 0.00 0.00 75 1007.2
20260505032706 10 285 3.2 4.8 0.00 0.00 0.00 75 1007.3
20260505031706 10 270 3.2 6.4 0.00 0.00 0.00 75 1007.4
20260505031218 10 261 4.8 6.4 0.00 0.00 0.00 75 1007.4
20260505030719 10 251 4.8 6.4 0.00 0.00 0.00 75 1007.4
20260505030210 10 244 3.2 6.4 0.00 0.00 0.00 74 1007.4
20260505025205 10 259 4.8 6.4 0.00 0.00 0.00 74 1007.4
20260505024712 10 259 4.8 9.7 0.00 0.00 0.00 74 1007.4
20260505024220 10 265 3.2 9.7 0.00 0.00 0.00 74 1007.4
20260505023714 10 301 4.8 9.7 0.00 0.00 0.00 73 1007.5
20260505023217 10 261 3.2 6.4 0.00 0.00 0.00 73 1007.5
20260505022717 10 266 3.2 4.8 0.00 0.00 0.00 73 1007.5
20260505021210 10 277 1.6 3.2 0.00 0.00 0.00 72 1007.6
20260505020708 10 277 1.6 4.8 0.00 0.00 0.00 72 1007.6
20260505020207 11 281 1.6 4.8 0.00 0.00 0.00 72 1007.6